Location: Goettingen
(51.5300°N, 9.9433°E)
Time: 12:59:21
(UTC+01:00)

ISS - Pass Details

Date: 23 February 2019
Orbit: 406 x 411 km, 51.6° (Epoch: 21 March)

Event Time Altitude Azimuth Distance (km) Brightness Sun altitude
Rises 06:28:56 0° 198° (SSW) 2,315 -0.1 -8.5°
Reaches altitude 10° 06:31:47 10° 171° (S) 1,461 -0.8 -8.0°
Maximum altitude 06:33:29 14° 140° (SE) 1,268 -0.6 -7.8°
Drops below altitude 10° 06:35:12 10° 108° (ESE) 1,467 0.6 -7.5°
Sets 06:38:04 0° 81° (E) 2,333 1.8 -7.1°
